Retour au catalogue

KUIPER-00647

ActifCommunicationsLEO
NORAD 69790·PAYLOAD·🇺🇸 United States

Lancé Jul 2, 2026 depuis Cape Canaveral Space Force Station

Loading…

Prochains Passages (prochaines 24 heures)

TLE

FraisSource: CelesTrak SupGP

Époque: Sep 14, 2026, 21:11 UTC

1 69790C 26151AD  26257.88304398  .00001306  00000+0  12894-3 0  2574
2 69790  51.8939 248.9445 0010751  44.2312 274.0560 14.91437226    18

Suivez KUIPER-00647 en temps réel avec AllMySat

Download on the App Store